TimeEST,TemperatureF,Dew PointF,Humidity,Sea Level PressureIn,VisibilityMPH,Wind Direction,Wind SpeedMPH,Gust SpeedMPH,PrecipitationIn,Events,Conditions,WindDirDegrees,DateUTC
12:56 AM,39.9,36.0,86,29.94,10.0,North,8.1,-,N/A,,Overcast,350,2013-11-03 04:56:00
1:31 AM,39.2,33.8,81,29.94,10.0,North,9.2,-,N/A,,Overcast,10,2013-11-03 05:31:00
1:38 AM,39.2,33.8,81,29.94,10.0,North,10.4,-,N/A,,Overcast,10,2013-11-03 05:38:00
1:56 AM,39.0,34.0,82,29.98,10.0,North,10.4,-,N/A,,Overcast,350,2013-11-03 05:56:00
1:34 AM,37.4,33.8,87,29.96,10.0,North,9.2,-,N/A,,Overcast,350,2013-11-03 06:34:00
1:56 AM,37.9,33.1,83,30.00,10.0,NNW,8.1,-,N/A,,Overcast,340,2013-11-03 06:56:00
2:56 AM,37.0,32.0,82,30.03,10.0,NNW,5.8,-,N/A,,Overcast,330,2013-11-03 07:56:00
3:06 AM,37.4,32.0,81,30.00,10.0,NNW,6.9,-,N/A,,Mostly Cloudy,330,2013-11-03 08:06:00
3:26 AM,37.4,33.8,87,30.01,10.0,NNW,5.8,-,N/A,,Overcast,330,2013-11-03 08:26:00
3:56 AM,37.0,32.0,82,30.06,10.0,NNW,5.8,-,N/A,,Overcast,340,2013-11-03 08:56:00
4:32 AM,35.6,32.0,87,30.06,8.0,North,5.8,-,0.00,Snow,Light Snow,350,2013-11-03 09:32:00
4:44 AM,35.6,32.0,87,30.06,10.0,North,5.8,-,0.00,,Overcast,360,2013-11-03 09:44:00
4:56 AM,36.0,32.0,86,30.10,10.0,NNE,8.1,-,0.00,,Overcast,20,2013-11-03 09:56:00
5:12 AM,35.6,32.0,87,30.08,10.0,North,5.8,-,N/A,,Overcast,10,2013-11-03 10:12:00
5:56 AM,36.0,30.9,82,30.13,10.0,North,5.8,-,N/A,,Overcast,350,2013-11-03 10:56:00
6:48 AM,33.8,30.2,87,30.13,10.0,North,5.8,-,N/A,,Scattered Clouds,350,2013-11-03 11:48:00
6:56 AM,34.0,30.0,85,30.17,10.0,North,6.9,-,N/A,,Mostly Cloudy,350,2013-11-03 11:56:00
7:06 AM,33.8,28.4,81,30.14,10.0,North,6.9,-,N/A,,Scattered Clouds,350,2013-11-03 12:06:00
7:14 AM,33.8,28.4,81,30.14,10.0,North,5.8,-,N/A,,Mostly Cloudy,350,2013-11-03 12:14:00
7:56 AM,35.1,28.0,76,30.20,10.0,North,8.1,-,N/A,,Overcast,360,2013-11-03 12:56:00
8:56 AM,37.0,28.9,73,30.24,10.0,NNW,6.9,-,N/A,,Overcast,330,2013-11-03 13:56:00
9:56 AM,39.0,28.9,67,30.25,10.0,North,10.4,16.1,N/A,,Overcast,350,2013-11-03 14:56:00
10:56 AM,37.9,27.0,65,30.28,10.0,North,8.1,16.1,N/A,,Mostly Cloudy,350,2013-11-03 15:56:00
11:04 AM,39.2,28.4,65,30.24,10.0,North,9.2,-,N/A,,Scattered Clouds,350,2013-11-03 16:04:00
11:56 AM,42.1,27.0,55,30.27,10.0,NNW,9.2,-,N/A,,Partly Cloudy,340,2013-11-03 16:56:00
12:56 PM,43.0,26.1,51,30.27,10.0,North,12.7,18.4,N/A,,Partly Cloudy,360,2013-11-03 17:56:00
1:56 PM,42.1,24.1,49,30.28,10.0,NNW,10.4,-,N/A,,Partly Cloudy,340,2013-11-03 18:56:00
2:56 PM,44.1,21.9,42,30.29,10.0,WNW,9.2,20.7,N/A,,Partly Cloudy,290,2013-11-03 19:56:00
3:56 PM,43.0,21.0,42,30.31,10.0,NW,9.2,-,N/A,,Clear,320,2013-11-03 20:56:00
4:56 PM,41.0,19.9,43,30.33,10.0,NNW,10.4,-,N/A,,Clear,340,2013-11-03 21:56:00
5:56 PM,37.0,21.0,52,30.36,10.0,North,6.9,-,N/A,,Clear,350,2013-11-03 22:56:00
6:56 PM,35.1,21.0,57,30.39,10.0,North,6.9,-,N/A,,Clear,10,2013-11-03 23:56:00
7:56 PM,32.0,21.0,64,30.42,10.0,North,6.9,-,N/A,,Clear,360,2013-11-04 00:56:00
8:56 PM,30.0,19.9,66,30.45,10.0,NNE,5.8,-,N/A,,Clear,30,2013-11-04 01:56:00
9:56 PM,28.9,19.0,67,30.47,10.0,NNE,6.9,-,N/A,,Clear,30,2013-11-04 02:56:00
10:56 PM,28.0,18.0,66,30.48,10.0,ENE,6.9,-,N/A,,Clear,60,2013-11-04 03:56:00